KLM225 EHRD-EGKK

Flight info

Callsign KLM225
Flight time 0h 44m
Altitude 24000
Route ABNED Z344 AMRIV Q63 ARREK Y4 TEBRA
Aircraft B737/M-SDE2E3FGHIRWXY/LB1

Departure

Time 2026-05-04 18:29
Airport Rotterdam The Hague Airport (EHRD)

Arrival

Time 2026-05-04 19:14
Airport London Gatwick Airport (EGKK)
Time Latitude Longitude Altitude Speed Heading
2026-05-04 17:56 51.95190 4.43404 0 ft 0 kts 327°
2026-05-04 17:58 51.95113 4.43485 1 ft 0 kts 327°
2026-05-04 18:24 51.95118 4.43479 0 ft 3 kts 327°
2026-05-04 18:25 51.95142 4.43461 1 ft 4 kts 356°
2026-05-04 18:25 51.95165 4.43493 1 ft 9 kts 53°
2026-05-04 18:25 51.95254 4.43510 0 ft 16 kts 346°
2026-05-04 18:25 51.95324 4.43601 0 ft 15 kts 57°
2026-05-04 18:26 51.95411 4.43818 0 ft 30 kts 58°
2026-05-04 18:26 51.95538 4.44135 0 ft 42 kts 57°
2026-05-04 18:26 51.95684 4.44502 0 ft 40 kts 57°
2026-05-04 18:26 51.95827 4.44857 0 ft 37 kts 56°
2026-05-04 18:27 51.95958 4.45189 0 ft 33 kts 58°
2026-05-04 18:27 51.96038 4.45373 0 ft 16 kts 41°
2026-05-04 18:27 51.96102 4.45374 0 ft 0 kts 338°
2026-05-04 18:28 51.96123 4.45349 1 ft 14 kts 317°
2026-05-04 18:28 51.96136 4.45146 2 ft 21 kts 237°
2026-05-04 18:28 51.96037 4.44896 -1 ft 53 kts 237°
2026-05-04 18:28 51.95647 4.43917 -1 ft 148 kts 237°
2026-05-04 18:29 51.94956 4.42233 253 ft 205 kts 238°
2026-05-04 18:29 51.94137 4.40101 784 ft 242 kts 243°
2026-05-04 18:29 51.93426 4.37470 1594 ft 254 kts 265°
2026-05-04 18:29 51.93689 4.34791 3159 ft 236 kts 297°
2026-05-04 18:30 51.95325 4.30265 5518 ft 250 kts 291°
2026-05-04 18:30 51.95470 4.27348 6342 ft 268 kts 266°
2026-05-04 18:30 51.95309 4.24333 7422 ft 274 kts 264°
2026-05-04 18:31 51.95096 4.21228 8555 ft 279 kts 263°
2026-05-04 18:31 51.94848 4.18062 9515 ft 285 kts 262°
2026-05-04 18:31 51.94585 4.14899 9847 ft 287 kts 262°
2026-05-04 18:31 51.94309 4.11678 9865 ft 290 kts 262°
2026-05-04 18:32 51.94029 4.08440 9922 ft 292 kts 261°
2026-05-04 18:32 51.93716 4.05093 10297 ft 314 kts 261°
2026-05-04 18:32 51.93359 4.01420 10663 ft 341 kts 261°
2026-05-04 18:32 51.92983 3.97572 11514 ft 349 kts 261°
2026-05-04 18:33 51.92602 3.93689 12537 ft 353 kts 261°
2026-05-04 18:33 51.92214 3.89729 13583 ft 357 kts 262°
2026-05-04 18:33 51.91821 3.85725 14561 ft 361 kts 262°
2026-05-04 18:33 51.91422 3.81672 15430 ft 366 kts 261°
2026-05-04 18:34 51.91018 3.77569 16306 ft 371 kts 261°
2026-05-04 18:34 51.90612 3.73466 17238 ft 375 kts 261°
2026-05-04 18:34 51.90196 3.69271 18124 ft 380 kts 261°
2026-05-04 18:34 51.89773 3.65031 18923 ft 383 kts 261°
2026-05-04 18:35 51.89346 3.60759 19846 ft 382 kts 261°
2026-05-04 18:35 51.88915 3.56464 20607 ft 387 kts 260°
2026-05-04 18:35 51.88480 3.52151 21365 ft 390 kts 260°
2026-05-04 18:35 51.88048 3.47877 22273 ft 390 kts 260°
2026-05-04 18:36 51.87603 3.43490 22911 ft 396 kts 260°
2026-05-04 18:36 51.87152 3.39066 23590 ft 401 kts 260°
2026-05-04 18:36 51.86696 3.34603 24257 ft 402 kts 259°
2026-05-04 18:36 51.86235 3.30108 24852 ft 406 kts 259°
2026-05-04 18:37 51.85773 3.25625 25344 ft 411 kts 259°
2026-05-04 18:37 51.85299 3.21045 25886 ft 414 kts 259°
2026-05-04 18:37 51.84711 3.16491 25968 ft 410 kts 249°
2026-05-04 18:37 51.83480 3.12304 26030 ft 411 kts 241°
2026-05-04 18:38 51.82145 3.08207 26014 ft 411 kts 241°
2026-05-04 18:38 51.80835 3.04173 26015 ft 410 kts 241°
2026-05-04 18:38 51.79515 3.00067 26012 ft 410 kts 242°
2026-05-04 18:38 51.78208 2.95967 26010 ft 409 kts 242°
2026-05-04 18:39 51.76907 2.91867 26004 ft 409 kts 242°
2026-05-04 18:39 51.75620 2.87806 26012 ft 410 kts 242°
2026-05-04 18:39 51.74318 2.83702 26010 ft 410 kts 242°
2026-05-04 18:39 51.73010 2.79584 26004 ft 411 kts 242°
2026-05-04 18:40 51.71718 2.75523 26007 ft 412 kts 242°
2026-05-04 18:40 51.70403 2.71405 26010 ft 412 kts 242°
2026-05-04 18:40 51.69230 2.67187 26006 ft 413 kts 249°
2026-05-04 18:40 51.68462 2.62719 26003 ft 415 kts 258°
2026-05-04 18:41 51.68061 2.58082 26015 ft 415 kts 261°
2026-05-04 18:41 51.67695 2.53513 26006 ft 415 kts 261°
2026-05-04 18:41 51.67302 2.48899 26007 ft 415 kts 260°
2026-05-04 18:41 51.66882 2.44281 26007 ft 415 kts 259°
2026-05-04 18:42 51.66449 2.39679 26021 ft 415 kts 259°
2026-05-04 18:42 51.66012 2.35081 26016 ft 414 kts 260°
2026-05-04 18:42 51.65581 2.30550 26008 ft 414 kts 260°
2026-05-04 18:42 51.65144 2.25951 26010 ft 414 kts 259°
2026-05-04 18:43 51.64710 2.21376 26013 ft 414 kts 259°
2026-05-04 18:43 51.64274 2.16794 26011 ft 414 kts 259°
2026-05-04 18:43 51.63835 2.12210 26006 ft 414 kts 259°
2026-05-04 18:43 51.63405 2.07631 25933 ft 411 kts 260°
2026-05-04 18:44 51.62997 2.03084 25377 ft 407 kts 260°
2026-05-04 18:44 51.62867 2.01623 25191 ft 406 kts 260°
2026-05-04 18:44 51.62199 1.94221 24145 ft 397 kts 261°
2026-05-04 18:44 51.61792 1.89839 23495 ft 393 kts 259°
2026-05-04 18:45 51.61089 1.85615 22745 ft 388 kts 247°
2026-05-04 18:45 51.59922 1.81743 22112 ft 380 kts 238°
2026-05-04 18:45 51.58419 1.78343 21484 ft 375 kts 229°
2026-05-04 18:45 51.56695 1.75219 20830 ft 372 kts 227°
2026-05-04 18:46 51.54952 1.72131 20244 ft 369 kts 227°
2026-05-04 18:46 51.53246 1.69080 20050 ft 361 kts 228°
2026-05-04 18:46 51.51594 1.66095 19946 ft 355 kts 228°
2026-05-04 18:46 51.50001 1.63206 19913 ft 344 kts 228°
2026-05-04 18:47 51.48622 1.60153 19893 ft 329 kts 244°
2026-05-04 18:47 51.47812 1.56832 19903 ft 312 kts 249°
2026-05-04 18:47 51.47106 1.53616 19893 ft 296 kts 250°
2026-05-04 18:47 51.46437 1.50576 19883 ft 282 kts 249°
2026-05-04 18:48 51.45779 1.47648 19306 ft 288 kts 249°
2026-05-04 18:48 51.45055 1.44494 18271 ft 312 kts 248°
2026-05-04 18:48 51.44273 1.41111 17102 ft 332 kts 249°
2026-05-04 18:48 51.43253 1.37708 15947 ft 348 kts 233°
2026-05-04 18:49 51.41500 1.34991 14959 ft 358 kts 218°
2026-05-04 18:49 51.39500 1.32604 14430 ft 354 kts 216°
2026-05-04 18:49 51.37547 1.30345 14261 ft 339 kts 216°
2026-05-04 18:49 51.35669 1.28180 14114 ft 325 kts 216°
2026-05-04 18:50 51.34472 1.26794 14042 ft 315 kts 216°
2026-05-04 18:50 51.32198 1.24142 13997 ft 294 kts 216°
2026-05-04 18:50 51.30586 1.22254 13991 ft 279 kts 216°
2026-05-04 18:50 51.29566 1.21057 13989 ft 269 kts 216°
2026-05-04 18:51 51.28100 1.19334 13986 ft 254 kts 216°
2026-05-04 18:51 51.26279 1.17193 13992 ft 236 kts 216°
2026-05-04 18:51 51.25390 1.16149 13992 ft 233 kts 216°
2026-05-04 18:51 51.24081 1.14612 14014 ft 236 kts 216°
2026-05-04 18:52 51.22730 1.13026 14026 ft 244 kts 216°
2026-05-04 18:52 51.21373 1.11434 14021 ft 245 kts 216°
2026-05-04 18:52 51.20002 1.09826 14020 ft 244 kts 215°
2026-05-04 18:52 51.18637 1.08225 14014 ft 242 kts 217°
2026-05-04 18:53 51.17565 1.06209 14010 ft 239 kts 245°
2026-05-04 18:53 51.16907 1.03813 14015 ft 239 kts 246°
2026-05-04 18:53 51.16250 1.01365 14034 ft 241 kts 246°
2026-05-04 18:53 51.15565 0.98841 13628 ft 255 kts 246°
2026-05-04 18:54 51.14832 0.96177 12831 ft 271 kts 246°
2026-05-04 18:54 51.14030 0.93298 11793 ft 295 kts 246°
2026-05-04 18:54 51.13171 0.90247 10790 ft 314 kts 245°
2026-05-04 18:54 51.12265 0.87056 10409 ft 309 kts 245°
2026-05-04 18:55 51.11390 0.83988 10190 ft 299 kts 245°
2026-05-04 18:55 51.09728 0.78198 9911 ft 276 kts 244°
2026-05-04 18:55 51.08945 0.75481 9710 ft 271 kts 245°
2026-05-04 18:56 51.08160 0.72764 9558 ft 271 kts 244°
2026-05-04 18:56 51.07368 0.70027 9397 ft 272 kts 245°
2026-05-04 18:56 51.06574 0.67288 9259 ft 274 kts 244°
2026-05-04 18:56 51.05771 0.64520 9105 ft 275 kts 245°
2026-05-04 18:57 51.04968 0.61754 8941 ft 275 kts 245°
2026-05-04 18:57 51.04175 0.59029 8792 ft 275 kts 245°
2026-05-04 18:57 51.03373 0.56272 8637 ft 274 kts 245°
2026-05-04 18:57 51.02570 0.53517 8488 ft 274 kts 245°
2026-05-04 18:58 51.01769 0.50771 8337 ft 274 kts 245°
2026-05-04 18:58 51.00976 0.48056 8187 ft 273 kts 245°
2026-05-04 18:58 51.00178 0.45324 8042 ft 272 kts 245°
2026-05-04 18:58 50.99381 0.42601 7883 ft 272 kts 245°
2026-05-04 18:59 50.98584 0.39880 7742 ft 270 kts 245°
2026-05-04 18:59 50.97791 0.37175 7584 ft 269 kts 245°
2026-05-04 18:59 50.97001 0.34483 7441 ft 268 kts 245°
2026-05-04 18:59 50.96263 0.31777 7281 ft 267 kts 255°
2026-05-04 19:00 50.96132 0.28924 7144 ft 259 kts 274°
2026-05-04 19:00 50.96289 0.26113 7038 ft 252 kts 276°
2026-05-04 19:00 50.96469 0.23392 6995 ft 242 kts 276°
2026-05-04 19:00 50.96644 0.20811 6981 ft 228 kts 276°
2026-05-04 19:01 50.96811 0.18379 6979 ft 215 kts 276°
2026-05-04 19:01 50.96973 0.16033 6987 ft 212 kts 276°
2026-05-04 19:01 50.97134 0.13712 6996 ft 212 kts 276°
2026-05-04 19:01 50.97294 0.11414 7010 ft 212 kts 276°
2026-05-04 19:02 50.97457 0.09077 7011 ft 213 kts 276°
2026-05-04 19:02 50.97620 0.06728 7012 ft 214 kts 276°
2026-05-04 19:02 50.97785 0.04364 6938 ft 218 kts 276°
2026-05-04 19:02 50.97953 0.01925 6470 ft 230 kts 276°
2026-05-04 19:03 50.98126 -0.00667 5986 ft 239 kts 276°
2026-05-04 19:03 50.98296 -0.03325 5573 ft 242 kts 276°
2026-05-04 19:03 50.98456 -0.05931 5341 ft 239 kts 276°
2026-05-04 19:03 50.98611 -0.08540 5184 ft 237 kts 276°
2026-05-04 19:04 50.98765 -0.11165 5043 ft 239 kts 276°
2026-05-04 19:04 50.98915 -0.13809 4913 ft 241 kts 276°
2026-05-04 19:04 50.99049 -0.16192 4790 ft 240 kts 276°
2026-05-04 19:04 50.99197 -0.18792 4653 ft 239 kts 276°
2026-05-04 19:05 50.99343 -0.21421 4525 ft 238 kts 276°
2026-05-04 19:05 50.99489 -0.24043 4412 ft 237 kts 276°
2026-05-04 19:05 50.99632 -0.26648 4297 ft 236 kts 276°
2026-05-04 19:05 50.99771 -0.29219 4199 ft 235 kts 276°
2026-05-04 19:06 50.99910 -0.31807 4102 ft 234 kts 276°
2026-05-04 19:06 51.00049 -0.34395 4013 ft 234 kts 276°
2026-05-04 19:06 51.00184 -0.36921 3928 ft 228 kts 276°
2026-05-04 19:06 51.00312 -0.39369 3863 ft 217 kts 276°
2026-05-04 19:07 51.00431 -0.41715 3838 ft 210 kts 276°
2026-05-04 19:07 51.00759 -0.44018 3797 ft 219 kts 301°
2026-05-04 19:07 51.01820 -0.45716 3778 ft 217 kts 331°
2026-05-04 19:07 51.03109 -0.46800 3691 ft 207 kts 335°
2026-05-04 19:08 51.04377 -0.47792 3627 ft 200 kts 336°
2026-05-04 19:08 51.05628 -0.48767 3601 ft 201 kts 336°
2026-05-04 19:08 51.06943 -0.49519 3541 ft 200 kts 359°
2026-05-04 19:08 51.08244 -0.48983 3526 ft 194 kts 34°
2026-05-04 19:09 51.09301 -0.47676 3457 ft 196 kts 40°
2026-05-04 19:09 51.10341 -0.46280 3351 ft 195 kts 40°
2026-05-04 19:09 51.11192 -0.44654 3204 ft 193 kts 71°
2026-05-04 19:09 51.11431 -0.42547 3116 ft 192 kts 75°
2026-05-04 19:10 51.11820 -0.40505 2741 ft 196 kts 73°
2026-05-04 19:10 51.12138 -0.38425 2446 ft 189 kts 76°
2026-05-04 19:10 51.12422 -0.36473 2207 ft 173 kts 75°
2026-05-04 19:10 51.12653 -0.34840 2001 ft 160 kts 75°
2026-05-04 19:11 51.12880 -0.33178 1777 ft 146 kts 76°
2026-05-04 19:11 51.13087 -0.31656 1604 ft 137 kts 76°
2026-05-04 19:11 51.13288 -0.30182 1432 ft 137 kts 76°
2026-05-04 19:11 51.13493 -0.28683 1267 ft 134 kts 76°
2026-05-04 19:12 51.13679 -0.27317 1054 ft 123 kts 77°
2026-05-04 19:12 51.14028 -0.24761 746 ft 125 kts 77°
2026-05-04 19:12 51.14212 -0.23421 585 ft 125 kts 76°
2026-05-04 19:13 51.14398 -0.22076 407 ft 125 kts 77°
2026-05-04 19:13 51.14581 -0.20746 254 ft 123 kts 77°
2026-05-04 19:13 51.14761 -0.19467 209 ft 113 kts 77°
2026-05-04 19:13 51.14893 -0.18463 201 ft 66 kts 77°
2026-05-04 19:14 51.14976 -0.17968 209 ft 35 kts 57°
2026-05-04 19:14 51.15043 -0.17824 210 ft 0 kts 52°
2026-05-04 19:14 51.15045 -0.17822 210 ft 0 kts 52°
2026-05-04 19:14 51.15050 -0.17811 210 ft 3 kts 52°
2026-05-04 19:15 51.15115 -0.17760 204 ft 17 kts 357°
2026-05-04 19:15 51.15201 -0.17774 207 ft 0 kts 353°
2026-05-04 19:16 51.15205 -0.17774 204 ft 1 kts 353°
2026-05-04 19:16 51.15219 -0.17776 204 ft 3 kts 356°
2026-05-04 19:16 51.15270 -0.17683 205 ft 24 kts 80°
2026-05-04 19:16 51.15295 -0.17489 203 ft 21 kts 81°
2026-05-04 19:17 51.15366 -0.17297 205 ft 20 kts 68°
2026-05-04 19:17 51.15412 -0.17095 203 ft 19 kts 77°
2026-05-04 19:17 51.15440 -0.16888 203 ft 19 kts 78°
2026-05-04 19:17 51.15441 -0.16726 206 ft 0 kts 114°
2026-05-04 19:18 51.15463 -0.16691 203 ft 10 kts
2026-05-04 19:18 51.15515 -0.16719 206 ft 0 kts 349°